Location: Melbourne
(37.8170°S, 144.9670°E)
Time: 15:44:40
(UTC+10:00)

ISS - Visible Passes

Search period start: 05 September 2015 00:00
Search period end: 15 September 2015 00:00
Orbit: 400 x 402 km, 51.6° (Epoch: 04 September)

Date Brightness Start Highest point End Pass type
(mag) Time Alt. Az. Time Alt. Az. Time Alt. Az.
05 Sep -3.2 18:50:17 10° NW 18:53:34 80° SW 18:56:36 12° SE visible
05 Sep 0.0 20:28:29 10° WSW 20:29:14 13° SW 20:29:14 13° SW visible
06 Sep -1.0 19:34:13 10° W 19:36:52 21° SSW 19:38:25 16° S visible
07 Sep -1.8 18:40:17 10° W 18:43:21 34° SSW 18:46:26 10° SE visible
08 Sep -0.5 19:25:06 10° SW 19:26:52 13° SSW 19:28:36 10° SSE visible
09 Sep -0.9 18:30:44 10° WSW 18:33:14 19° SSW 18:35:43 10° SSE visible
